Amateur Radio Satellites - All Passes

Search period start: 23 May 2013 19:57
Search period end: 24 May 2013 19:57
Location: The Jewett Observatory, 46.7288°N, 117.1525°W

Satellite Date Start Highest point End Downlink Frequencies (MHz)
Time Altitude Azimuth
Oscar 11 23 May 20:08:31 20:09:04 10° 56° (ENE) 20:09:36 145.825 FM, Beacon 2401.500 USB
STRAND 1 23 May 20:14:37 20:19:22 39° 293° (WNW) 20:24:07 ?
UOSAT-12 23 May 20:28:36 20:33:00 46° 240° (WSW) 20:37:23 437.025 FM, 437.400 FM
RS-15 23 May 20:33:27 20:43:34 32° 349° (N) 20:53:20 29.354 - 29.394 USB, Beacon 29.352 USB
OPAL 23 May 21:00:58 21:05:07 25° 59° (ENE) 21:09:15 ?
JAS-2 23 May 21:06:55 21:14:33 60° 68° (ENE) 21:22:09 435.800 - 435.900 CW/SSB, 435.910 FM
KITSAT 1 23 May 21:18:08 21:22:24 15° 99° (E) 21:26:40 435.175 FM
HO-68 23 May 21:31:39 21:38:47 75° 255° (WSW) 21:45:58 435.675 MHz FM
JAS-1B 23 May 21:32:45 21:39:09 22° 270° (W) 21:44:58 435.800 - 435.900 CW/SSB
Oscar 11 23 May 21:40:13 21:44:32 79° 75° (ENE) 21:48:53 145.825 FM, Beacon 2401.500 USB
OPAL 23 May 22:38:39 22:43:43 53° 257° (WSW) 22:48:46 ?
RS-15 23 May 22:49:36 22:59:59 38° 23° (NNE) 23:09:58 29.354 - 29.394 USB, Beacon 29.352 USB
JAS-2 23 May 22:52:52 22:59:50 35° 267° (W) 23:06:52 435.800 - 435.900 CW/SSB, 435.910 FM
KITSAT 1 23 May 23:08:21 23:16:21 71° 119° (ESE) 23:24:25 435.175 FM
AO-40 23 May 23:19:28 04:28:46 33° 163° (SSE) 07:32:08 Beacon 2401.320
Oscar 11 23 May 23:20:01 23:21:20 11° 272° (W) 23:22:40 145.825 FM, Beacon 2401.500 USB
HO-68 23 May 23:24:08 23:27:41 14° 274° (W) 23:31:16 435.675 MHz FM
RS-15 24 May 01:02:50 01:14:07 85° 53° (NE) 01:25:02 29.354 - 29.394 USB, Beacon 29.352 USB
KITSAT 1 24 May 01:04:58 01:12:23 38° 323° (NW) 01:19:51 435.175 FM
Oscar 16 24 May 01:12:53 01:15:00 12° 87° (E) 01:17:06 437.025 USB, Beacon 2401.1428
AO-27 24 May 01:25:13 01:27:04 12° 86° (E) 01:28:54 436.795 MHz FM
MaSat-1 24 May 01:29:23 01:36:04 53° 113° (ESE) 01:41:33 437.345 MHz
ITAMSAT 1 24 May 01:31:02 01:33:28 13° 87° (E) 01:35:54 435.822 SSB
Uribyol 2 24 May 02:10:07 02:14:45 31° 95° (E) 02:19:21 436.500 FM
Oscar 19 24 May 02:10:32 02:15:16 35° 96° (E) 02:19:57 437.125 CW, 437.150 USB
ISS 24 May 02:38:15 02:41:21 38° 144° (SE) 02:44:29 145.800 FM
Oscar 16 24 May 02:49:55 02:55:08 88° 105° (ESE) 03:00:18 437.025 USB, Beacon 2401.1428
AO-27 24 May 03:02:08 03:07:24 84° 105° (ESE) 03:12:38 436.795 MHz FM
KITSAT 1 24 May 03:04:48 03:10:28 20° 351° (N) 03:16:09 435.175 FM
ITAMSAT 1 24 May 03:08:26 03:13:42 89° 286° (WNW) 03:18:56 435.822 SSB
MaSat-1 24 May 03:12:25 03:18:22 35° 308° (NW) 03:23:15 437.345 MHz
TMSAT-1 24 May 03:15:14 03:15:55 10° 85° (E) 03:16:37 436.925 FM
RS-15 24 May 03:16:19 03:25:07 29° 257° (WSW) 03:33:49 29.354 - 29.394 USB, Beacon 29.352 USB
Gurwin Techsat 1B 24 May 03:34:58 03:39:16 24° 92° (E) 03:43:31 435.225 FM
Uosat F 24 May 03:36:24 03:40:43 28° 95° (E) 03:45:01 435.120 FM
AO-Echo 24 May 03:41:59 03:46:45 71° 103° (ESE) 03:51:35 ?
Uribyol 2 24 May 03:49:28 03:54:20 40° 293° (WNW) 03:59:10 436.500 FM
Oscar 19 24 May 03:49:58 03:54:36 34° 295° (WNW) 03:59:13 437.125 CW, 437.150 USB
ISS 24 May 04:14:47 04:18:02 50° 343° (NNW) 04:21:18 145.800 FM
Saudisat 1A 24 May 04:25:58 04:28:13 14° 109° (ESE) 04:30:29 436.775 MHz
Oscar 10/S400 24 May 04:29:43 08:45:03 62° 210° (SSW) 14:47:35 145.825 - 145.975 CW/USB, Beacon 145.810 USB
Oscar 16 24 May 04:30:51 04:33:48 15° 304° (WNW) 04:36:43 437.025 USB, Beacon 2401.1428
AO-27 24 May 04:43:05 04:46:16 17° 303° (WNW) 04:49:27 436.795 MHz FM
ITAMSAT 1 24 May 04:49:34 04:52:29 15° 304° (NW) 04:55:23 435.822 SSB
TMSAT-1 24 May 04:51:26 04:56:47 75° 103° (ESE) 05:02:05 436.925 FM
AO-7 24 May 04:56:23 05:03:41 32° 95° (E) 05:10:55 29.400 - 29.500 MHz
KITSAT 1 24 May 05:02:53 05:09:13 24° 21° (NNE) 05:15:33 435.175 FM
Gurwin Techsat 1B 24 May 05:14:23 05:19:32 51° 291° (WNW) 05:24:39 435.225 FM
Uosat F 24 May 05:14:57 05:19:40 41° 293° (WNW) 05:24:21 435.120 FM
AO-Echo 24 May 05:22:07 05:25:03 17° 301° (WNW) 05:28:00 ?
PCSat 24 May 05:48:07 05:49:18 11° 101° (E) 05:50:29 145.825 MHz
ISS 24 May 05:52:06 05:55:11 34° 3° (N) 05:58:17 145.800 FM
STRAND 1 24 May 05:54:19 05:59:19 59° 71° (ENE) 06:04:20 ?
Saudisat 1A 24 May 06:02:40 06:07:16 86° 307° (NW) 06:11:55 436.775 MHz
Sapphire 24 May 06:18:09 06:21:57 20° 106° (ESE) 06:25:46 437.095 MHz 1200 baud AX-25 AFSK
TMSAT-1 24 May 06:32:33 06:36:09 19° 302° (WNW) 06:39:44 436.925 FM
AO-7 24 May 06:48:45 06:57:01 66° 295° (WNW) 07:05:15 29.400 - 29.500 MHz
KITSAT 1 24 May 06:58:29 07:06:31 58° 48° (NE) 07:14:31 435.175 FM
Hamsat 24 May 07:23:19 07:27:19 34° 96° (E) 07:31:18 145.90 MHz
JAS-1B 24 May 07:23:31 07:27:21 17° 87° (E) 07:31:01 435.800 - 435.900 CW/SSB
PCSat 24 May 07:26:21 07:31:43 71° 119° (ESE) 07:37:09 145.825 MHz
ISS 24 May 07:28:55 07:32:16 68° 23° (NNE) 07:35:37 145.800 FM
STRAND 1 24 May 07:35:14 07:38:55 20° 269° (W) 07:42:37 ?
Saudisat 1A 24 May 07:44:20 07:47:39 19° 328° (NNW) 07:50:59 436.775 MHz
SO-50 24 May 07:51:54 07:55:50 26° 115° (ESE) 07:59:44 436.795 FM
Sapphire 24 May 07:59:26 08:04:50 71° 305° (NW) 08:10:16 437.095 MHz 1200 baud AX-25 AFSK
SO-67 24 May 08:38:06 08:41:42 79° 101° (ESE) 08:45:17 435.3500 MHz FM
AO-7 24 May 08:42:57 08:48:19 19° 317° (NW) 08:53:43 29.400 - 29.500 MHz
KITSAT 1 24 May 08:54:17 09:01:42 41° 249° (WSW) 09:09:05 435.175 FM
HO-68 24 May 08:57:34 09:02:15 18° 88° (E) 09:06:54 435.675 MHz FM
Hamsat 24 May 08:59:37 09:03:17 27° 294° (WNW) 09:06:57 145.90 MHz
ISS 24 May 09:05:59 09:08:45 24° 221° (SW) 09:11:32 145.800 FM
PCSat 24 May 09:11:13 09:15:41 25° 320° (NW) 09:20:11 145.825 MHz
JAS-1B 24 May 09:12:48 09:18:56 71° 289° (WNW) 09:24:33 435.800 - 435.900 CW/SSB
Oscar 11 24 May 09:27:24 09:29:06 12° 88° (E) 09:30:48 145.825 FM, Beacon 2401.500 USB
SO-50 24 May 09:31:34 09:36:14 51° 313° (NW) 09:40:50 436.795 FM
Sapphire 24 May 09:45:35 09:49:16 18° 327° (NNW) 09:52:58 437.095 MHz 1200 baud AX-25 AFSK
JAS-2 24 May 09:59:47 10:06:12 39° 94° (E) 10:11:51 435.800 - 435.900 CW/SSB, 435.910 FM
MaSat-1 24 May 10:12:18 10:15:25 26° 49° (NE) 10:18:00 437.345 MHz
UOSAT-12 24 May 10:43:09 10:46:55 27° 115° (ESE) 10:50:44 437.025 FM, 437.400 FM
HO-68 24 May 10:43:42 10:50:55 88° 108° (ESE) 10:58:06 435.675 MHz FM
OPAL 24 May 10:46:02 10:50:28 31° 98° (E) 10:54:50 ?
Oscar 11 24 May 11:01:29 11:05:52 76° 286° (WNW) 11:10:14 145.825 FM, Beacon 2401.500 USB
JAS-1B 24 May 11:05:42 11:08:20 13° 313° (NW) 11:10:52 435.800 - 435.900 CW/SSB
Saudisat 1A 24 May 11:10:09 11:11:09 11° 17° (NNE) 11:12:08 436.775 MHz
SO-50 24 May 11:15:21 11:17:56 14° 335° (NNW) 11:20:30 436.795 FM
JAS-2 24 May 11:44:47 11:51:19 43° 296° (WNW) 11:57:07 435.800 - 435.900 CW/SSB, 435.910 FM
MaSat-1 24 May 11:55:01 11:57:06 16° 256° (WSW) 11:58:58 437.345 MHz
Oscar 19 24 May 11:55:15 11:56:54 12° 53° (NE) 11:58:33 437.125 CW, 437.150 USB
Uribyol 2 24 May 11:56:33 11:57:27 10° 52° (NE) 11:58:21 436.500 FM
UOSAT-12 24 May 12:22:32 12:26:54 45° 314° (NW) 12:31:18 437.025 FM, 437.400 FM
OPAL 24 May 12:24:49 12:29:26 37° 296° (WNW) 12:33:58 ?
Oscar 16 24 May 12:31:48 12:36:02 26° 62° (ENE) 12:40:17 437.025 USB, Beacon 2401.1428
HO-68 24 May 12:32:29 12:37:46 23° 308° (NW) 12:43:03 435.675 MHz FM
AO-27 24 May 12:45:12 12:49:24 26° 62° (ENE) 12:53:37 436.795 MHz FM
Saudisat 1A 24 May 12:48:15 12:52:20 30° 40° (NE) 12:56:20 436.775 MHz
ITAMSAT 1 24 May 12:51:12 12:55:32 28° 63° (ENE) 12:59:53 435.822 SSB
Sapphire 24 May 13:19:33 13:21:22 12° 21° (NNE) 13:23:10 437.095 MHz 1200 baud AX-25 AFSK
AO-Echo 24 May 13:21:30 13:24:36 17° 60° (ENE) 13:27:39 ?
Oscar 19 24 May 13:30:09 13:35:18 67° 72° (ENE) 13:40:29 437.125 CW, 437.150 USB
Uribyol 2 24 May 13:30:49 13:35:54 61° 71° (ENE) 13:41:03 436.500 FM
JAS-2 24 May 13:33:56 13:34:24 10° 319° (NW) 13:34:52 435.800 - 435.900 CW/SSB, 435.910 FM
UOSAT-12 24 May 14:06:02 14:08:13 13° 336° (NNW) 14:10:24 437.025 FM, 437.400 FM
Oscar 16 24 May 14:10:07 14:15:08 49° 261° (W) 14:20:13 437.025 USB, Beacon 2401.1428
AO-7 24 May 14:10:35 14:15:12 16° 39° (NE) 14:19:50 29.400 - 29.500 MHz
AO-27 24 May 14:23:38 14:28:39 50° 260° (W) 14:33:43 436.795 MHz FM
Saudisat 1A 24 May 14:27:50 14:32:12 45° 240° (WSW) 14:36:28 436.775 MHz
PCSat 24 May 14:28:43 14:33:04 24° 38° (NE) 14:37:23 145.825 MHz
ITAMSAT 1 24 May 14:29:54 14:34:50 45° 261° (W) 14:39:50 435.822 SSB
TMSAT-1 24 May 14:36:58 14:41:05 24° 61° (ENE) 14:45:13 436.925 FM
SO-50 24 May 14:40:57 14:43:25 14° 25° (NNE) 14:45:52 436.795 FM
Uosat F 24 May 14:52:28 14:57:18 52° 70° (ENE) 15:02:10 435.120 FM
AO-Echo 24 May 14:58:09 15:02:56 66° 258° (WSW) 15:07:40 ?
Gurwin Techsat 1B 24 May 14:58:45 15:03:50 49° 69° (ENE) 15:08:57 435.225 FM
Sapphire 24 May 15:01:35 15:06:32 34° 45° (NE) 15:11:28 437.095 MHz 1200 baud AX-25 AFSK
Oscar 19 24 May 15:11:40 15:15:09 18° 270° (W) 15:18:39 437.125 CW, 437.150 USB
Uribyol 2 24 May 15:12:06 15:15:50 20° 269° (W) 15:19:35 436.500 FM
RS-15 24 May 15:29:19 15:40:07 41° 109° (ESE) 15:50:30 29.354 - 29.394 USB, Beacon 29.352 USB
AO-7 24 May 15:58:15 16:06:15 56° 62° (ENE) 16:14:18 29.400 - 29.500 MHz
PCSat 24 May 16:11:40 16:17:08 80° 239° (WSW) 16:22:33 145.825 MHz
TMSAT-1 24 May 16:15:27 16:20:39 56° 260° (W) 16:25:53 436.925 FM
SO-50 24 May 16:20:38 16:25:07 52° 47° (NE) 16:29:31 436.795 FM
Uosat F 24 May 16:32:35 16:36:25 22° 268° (W) 16:40:16 435.120 FM
Gurwin Techsat 1B 24 May 16:39:44 16:44:04 25° 267° (W) 16:48:26 435.225 FM
Sapphire 24 May 16:44:57 16:50:08 47° 245° (WSW) 16:55:18 437.095 MHz 1200 baud AX-25 AFSK
UOSAT-12 24 May 17:30:10 17:32:46 15° 26° (NNE) 17:35:22 437.025 FM, 437.400 FM
RS-15 24 May 17:40:00 17:51:57 71° 312° (NW) 18:03:24 29.354 - 29.394 USB, Beacon 29.352 USB
AO-7 24 May 17:51:44 17:59:19 39° 263° (W) 18:07:00 29.400 - 29.500 MHz
PCSat 24 May 17:57:28 17:59:39 12° 258° (WSW) 18:01:50 145.825 MHz
SO-50 24 May 18:01:52 18:05:26 23° 246° (WSW) 18:08:56 436.795 FM
STRAND 1 24 May 18:03:24 18:06:30 16° 89° (E) 18:09:36 ?
JAS-1B 24 May 18:09:36 18:16:51 31° 60° (ENE) 18:23:10 435.800 - 435.900 CW/SSB
Hamsat 24 May 18:20:20 18:24:10 35° 69° (ENE) 18:28:03 145.90 MHz
UOSAT-12 24 May 19:09:25 19:13:57 55° 48° (NE) 19:18:28 437.025 FM, 437.400 FM
SO-67 24 May 19:16:39 19:20:03 43° 72° (ENE) 19:23:28 435.3500 MHz FM
HO-68 24 May 19:29:58 19:35:05 22° 51° (NE) 19:40:13 435.675 MHz FM
STRAND 1 24 May 19:41:08 19:46:17 74° 287° (WNW) 19:51:24 ?

Developed and maintained by Chris Peat, Heavens-Above GmbH. Please read the updated FAQ before sending e-mail. Imprint. DLR
